Location: Fazenda Monte Alegre
(4.8500°S, 38.0333°W)
Time: 16:32:12
(UTC+00:00)

Ariane H10 - Pass Details

Date: 24 September 2020
Orbit: 383 x 34049 km, 7.1° (Epoch: 24 October)

Event Time Altitude Azimuth Distance (km) Brightness Sun altitude
Rises 22:20:55 0° 271° (W) 2,463 7.9 -29.1°
Reaches altitude 10° 22:22:13 10° 270° (W) 1,822 6.9 -29.4°
Enters shadow 22:25:27 79° 223° (SW) 942 4.3 -30.2°
